Theta_e
327 328 329 330 331 332 333 334 334 335 336 337 338 340 342 342 342 340 341 341 342 341 343 344 345 345 345 346 347 347 346 345 346 347 347 346 347 347 347 348 348 349 350 350 350 351 352 352 351 353 354 355 356 355 355 357 357 357 355 356 355 355 354
327 328 329 330 331 332 333 334 334 336 338 339 339 340 341 341 341 340 340 340 341 342 343 344 345 345 346 345 346 346 346 345 347 349 348 347 348 348 348 349 349 349 351 351 351 352 352 351 351 351 352 355 355 355 355 356 356 356 354 354 354 353 355
326 327 329 330 331 331 332 334 335 337 340 341 341 341 341 341 341 341 340 340 340 341 343 344 345 344 345 345 344 345 347 346 346 345 345 345 346 348 348 349 349 349 351 352 352 352 353 351 351 351 352 352 353 354 354 354 356 354 354 354 354 353 353
325 326 328 331 332 333 334 334 337 338 340 342 342 342 341 341 341 341 341 341 340 341 341 343 344 344 344 344 344 345 345 346 346 346 347 347 346 348 348 348 349 350 350 351 352 352 352 351 350 350 355 351 352 353 353 353 353 353 353 353 353 353 353
323 325 327 328 331 332 334 335 337 339 341 342 343 344 342 342 342 341 340 341 341 341 342 343 344 344 345 344 344 344 345 346 345 346 347 347 348 348 347 347 348 349 350 351 352 353 352 351 350 350 351 351 351 352 352 353 352 353 352 352 352 353 352
322 323 325 327 329 332 334 336 338 340 341 342 342 342 341 341 342 342 341 342 342 342 343 343 344 344 343 343 343 344 344 344 347 347 347 347 347 347 347 348 348 349 349 350 352 352 352 350 349 349 349 350 350 350 351 351 351 351 351 352 353 352 352
322 323 325 327 329 331 334 336 338 340 341 342 342 344 342 341 340 341 342 342 344 343 343 344 345 345 345 345 344 344 343 344 345 345 347 347 346 345 347 348 349 349 350 351 351 351 351 350 350 350 350 350 351 350 350 350 350 350 351 351 352 353 354
322 324 326 328 331 334 335 336 338 340 341 341 341 341 341 340 340 340 340 341 342 343 344 344 345 346 346 347 346 344 344 344 346 346 346 346 346 347 347 348 349 349 350 349 350 351 350 350 350 350 350 350 350 350 350 350 350 350 350 350 350 351 352
323 325 328 330 332 334 335 335 338 339 340 340 341 341 341 341 340 341 341 340 341 341 342 344 345 346 346 346 346 345 345 345 345 347 346 345 346 346 347 348 349 350 349 349 350 351 350 350 350 350 350 350 350 350 350 350 349 349 349 349 350 350 350
323 325 328 331 332 332 333 335 336 338 339 339 339 340 340 340 341 341 341 341 340 340 341 342 344 346 345 345 344 345 345 345 345 345 346 345 346 346 348 349 350 351 351 350 351 350 351 350 350 348 349 350 351 351 350 350 349 348 349 349 350 350 351
323 326 327 329 331 331 332 333 334 336 337 338 339 339 339 340 340 340 341 341 340 340 340 340 342 344 344 344 343 345 345 345 345 345 345 346 347 347 348 349 350 351 350 350 350 349 347 347 346 346 345 348 351 350 350 350 349 349 348 348 349 350 351
324 325 326 328 329 330 331 332 333 333 335 336 338 339 339 339 339 340 341 341 342 341 341 341 343 343 342 342 343 344 344 345 345 345 345 346 346 347 348 349 350 350 350 350 349 348 347 345 345 345 344 347 349 350 350 351 350 349 349 348 349 349 350
324 325 326 327 329 329 329 330 331 333 334 335 336 336 338 339 339 339 340 341 341 342 342 342 343 343 342 341 341 343 343 343 343 345 345 346 346 347 347 348 349 349 348 350 348 347 345 344 344 346 345 346 348 348 349 350 349 350 349 349 349 349 349
332 325 325 325 326 327 329 330 331 331 333 334 334 335 336 338 340 340 340 340 341 342 343 343 343 342 342 341 341 341 343 344 344 344 345 346 346 347 348 348 348 348 349 349 347 347 345 344 344 345 346 345 346 347 349 350 349 349 349 349 349 349 349
325 325 325 326 327 327 327 328 329 330 332 333 334 334 335 336 338 340 341 342 342 343 343 344 342 341 342 342 341 342 343 344 345 344 344 345 345 346 346 347 347 349 348 349 348 347 347 346 346 344 344 345 345 346 347 347 347 348 348 348 348 349 348
326 325 326 327 327 327 328 329 329 330 331 332 334 334 334 335 337 340 341 341 342 343 344 343 342 341 341 341 342 343 345 345 345 345 344 345 343 343 345 346 348 348 347 347 348 347 346 345 347 345 344 345 345 346 347 347 347 350 351 350 349 348 347
326 326 327 328 328 328 328 329 330 330 331 332 333 334 334 335 336 339 341 342 342 343 344 343 341 341 340 341 342 343 344 345 345 344 344 344 343 343 344 343 344 343 342 344 345 345 346 344 343 345 346 346 346 346 347 346 346 350 341 341 348 349 348
326 327 328 328 329 329 328 328 329 330 331 332 333 335 335 335 336 339 341 342 342 343 343 341 341 340 340 341 342 341 341 342 343 341 339 340 341 341 341 342 342 341 342 342 342 343 345 344 344 344 346 346 346 346 346 345 347 339 338 339 339 350 350
327 328 329 329 330 331 330 330 330 331 332 332 334 335 336 336 336 338 341 341 343 343 342 340 340 339 339 340 341 340 341 341 341 339 338 339 340 341 341 340 341 341 342 342 343 343 342 341 343 343 343 341 342 342 343 344 345 337 336 336 336 338 351
328 329 330 330 331 332 332 331 331 332 332 333 335 336 337 339 337 340 342 343 344 343 342 341 341 340 341 341 341 341 342 342 341 339 338 340 340 341 341 341 341 342 342 342 342 342 342 343 341 342 340 340 340 341 342 342 347 337 334 333 333 335 341
327 328 329 329 330 331 332 332 331 331 331 332 334 336 337 337 340 339 341 342 342 343 342 341 340 340 340 340 340 341 342 342 342 341 341 340 340 340 340 340 341 341 342 342 340 340 341 342 342 343 342 342 341 340 341 343 341 336 333 330 329 330 342
328 328 328 329 330 332 332 332 332 332 332 336 337 336 337 337 339 338 339 341 342 341 341 341 340 340 340 340 341 341 342 342 342 342 342 342 340 339 339 339 340 340 342 343 343 344 344 343 343 344 343 343 344 343 342 345 338 333 332 330 328 335 342
329 328 329 329 331 333 335 335 334 333 336 336 336 336 336 338 339 338 338 339 340 341 341 340 340 339 340 341 341 342 341 343 343 343 342 342 342 341 340 340 341 342 344 343 343 343 343 343 344 345 345 344 344 343 345 345 338 329 328 328 327 338 342
328 328 328 328 331 334 334 334 334 336 336 336 337 337 337 340 341 339 338 339 340 340 340 340 340 340 340 341 341 342 342 342 343 343 343 342 342 342 342 343 343 343 345 344 343 342 343 344 344 345 345 345 344 344 344 344 344 329 325 325 325 340 343
325 325 326 328 332 333 335 334 335 337 337 337 337 337 339 341 342 341 340 341 340 341 340 341 342 342 341 341 342 342 342 342 343 343 343 342 342 343 342 342 342 344 345 344 344 344 344 344 343 344 344 345 345 347 345 344 344 328 324 324 324 336 345
324 324 326 329 334 335 336 337 339 337 335 336 337 338 340 342 342 343 342 342 341 341 341 342 343 344 344 343 342 342 342 342 343 342 343 343 343 343 343 344 343 343 343 344 344 344 343 344 344 342 343 344 346 345 347 346 345 343 324 322 322 327 344
325 326 327 331 334 342 336 337 338 337 336 337 338 339 341 343 342 343 344 342 340 341 342 344 344 344 343 342 341 341 342 342 343 342 343 344 344 344 344 343 342 341 341 342 342 343 342 341 343 342 342 343 344 344 345 346 345 345 327 320 321 323 334
328 331 335 336 339 339 336 337 336 336 336 337 338 341 342 343 343 344 343 341 340 342 344 343 342 342 340 339 340 340 341 341 341 343 343 344 345 344 343 343 343 341 341 342 342 341 341 341 341 341 341 342 343 344 345 347 348 348 333 324 319 319 325
328 330 333 335 337 340 337 336 336 337 337 337 339 341 341 342 344 344 344 340 342 343 342 341 340 339 338 338 338 339 339 341 343 344 344 344 346 344 343 343 343 343 343 341 341 341 340 340 340 340 340 341 342 343 345 344 348 342 342 325 317 316 320
329 331 333 335 337 338 340 336 336 336 337 339 341 341 341 341 343 344 342 341 342 340 342 341 338 337 337 339 338 337 338 339 342 343 343 345 345 344 343 342 343 344 344 343 342 341 340 340 340 341 340 340 341 342 342 342 344 344 341 329 317 314 317
328 329 331 333 335 339 339 336 336 336 338 340 342 342 341 341 342 345 343 341 342 342 341 338 337 338 338 338 337 337 336 337 339 341 342 344 344 343 343 343 344 342 343 343 342 341 340 340 341 341 342 341 340 340 339 337 338 339 340 335 324 317 315
327 329 331 333 335 338 339 336 336 337 339 340 342 342 344 342 343 345 345 340 343 342 340 338 338 338 337 336 336 337 336 336 337 339 341 342 344 344 344 343 343 342 340 341 341 341 341 340 340 340 340 339 339 339 336 335 337 338 339 339 333 325 317
327 328 331 332 334 337 337 335 335 336 338 339 341 343 343 342 341 344 343 341 342 341 340 339 339 340 338 337 336 336 336 335 335 336 338 341 343 344 343 342 341 341 341 340 339 338 338 338 339 338 337 337 335 335 336 336 335 334 334 333 332 332 331
327 327 329 333 335 337 337 336 335 336 337 338 341 342 343 342 341 341 341 342 341 341 340 341 341 339 337 336 337 336 336 336 341 339 337 339 339 338 337 338 339 339 339 339 339 337 337 338 337 337 337 336 336 336 336 333 331 330 331 329 329 329 330
328 329 329 331 334 337 337 336 336 336 337 338 340 341 342 342 341 339 338 340 340 340 341 341 344 340 337 336 336 336 339 338 342 338 337 335 333 331 332 335 337 337 337 338 340 340 339 337 336 337 338 338 337 336 334 333 331 333 324 330 321 326 327
329 329 329 332 335 337 338 339 337 337 337 338 338 339 339 339 338 338 338 339 339 340 341 343 341 337 336 337 337 337 340 338 338 335 335 333 332 330 329 322 310 314 334 339 333 325 319 323 337 338 338 336 334 332 335 334 336 314 305 304 305 307 308
330 331 331 332 333 335 336 337 339 338 338 337 336 337 338 337 336 335 336 338 338 340 341 341 339 337 336 337 337 338 340 338 336 334 334 333 332 331 331 331 324 300 302 315 318 308 303 306 311 317 324 335 330 318 309 314 306 301 299 298 298 297 297
333 333 332 332 332 334 336 337 338 338 338 336 335 335 335 335 333 335 335 336 337 338 339 339 338 336 335 337 338 342 342 337 338 336 334 333 332 331 332 331 330 329 304 299 304 301 297 299 302 305 310 315 319 323 315 305 300 298 297 297 297 297 295
Wind_Speed
4 5 5 6 6 7 8 7 7 7 8 8 8 8 8 7 7 6 7 7 9 8 7 8 9 9 12 12 12 10 11 11 10 11 11 11 10 10 11 10 10 10 10 9 9 10 9 9 9 8 7 7 7 7 7 6 5 5 5 4 4 4 5
5 5 5 5 6 6 6 6 6 6 6 6 6 7 6 6 5 6 7 7 9 10 9 9 10 10 12 13 11 11 11 11 10 8 9 7 8 9 10 11 11 11 10 9 9 8 8 9 9 9 8 7 7 7 6 6 6 6 5 5 5 4 4
4 4 4 5 6 7 7 5 6 6 6 5 5 6 7 7 8 9 8 8 9 8 7 7 9 11 10 9 9 10 9 9 10 10 12 13 14 12 10 10 10 10 10 9 8 7 7 8 8 9 9 8 7 7 6 6 6 6 6 5 5 5 5
5 6 5 4 4 4 6 6 6 6 5 6 6 7 7 7 7 7 7 8 9 8 8 8 9 10 10 10 10 10 10 10 11 12 13 11 11 11 10 10 9 9 8 9 7 7 7 8 9 8 9 9 8 7 7 7 6 6 6 6 5 5 5
3 3 2 4 5 5 5 6 6 6 6 6 6 6 7 6 7 6 6 7 7 9 9 10 8 9 9 10 9 9 10 11 11 12 11 11 11 10 11 11 10 11 11 9 10 9 9 8 7 8 9 9 8 7 7 7 6 6 6 6 5 5 5
5 5 5 5 5 5 5 3 3 6 7 7 7 7 7 7 6 7 7 7 7 7 6 7 8 9 10 10 10 11 12 12 11 13 15 14 13 11 11 11 11 12 11 11 9 9 10 9 9 9 9 7 7 7 7 7 6 6 6 6 6 5 5
5 5 5 5 4 3 4 5 5 4 4 4 4 5 5 6 7 6 6 7 7 8 7 8 8 9 9 10 11 13 14 14 13 12 10 12 11 10 11 11 11 11 11 9 9 9 9 10 10 10 9 8 8 8 8 8 7 6 6 6 6 5 5
4 4 4 3 2 4 6 5 5 5 4 4 4 5 5 4 4 5 6 5 5 6 7 8 8 8 8 8 9 11 12 13 11 11 12 11 12 13 11 10 10 10 10 11 10 10 10 11 8 8 8 8 8 8 7 7 8 7 6 6 6 6 4
3 2 0 1 4 5 5 5 5 6 7 7 7 6 5 4 5 5 4 3 4 6 7 7 6 6 6 7 8 10 10 11 11 12 14 14 12 13 12 12 11 10 11 10 9 9 9 9 8 9 8 7 8 8 7 7 7 6 7 6 7 7 5
4 2 2 3 4 5 5 6 6 6 6 6 6 7 7 6 5 4 4 5 4 6 7 7 6 5 7 7 8 9 10 10 11 13 13 15 14 15 14 12 10 10 10 10 9 9 7 6 6 6 3 6 7 7 8 7 7 7 6 7 7 7 7
2 3 4 4 5 6 6 6 7 7 7 7 7 7 7 6 6 5 6 5 5 6 6 5 4 5 5 6 6 8 9 11 11 12 14 16 13 15 12 11 10 9 11 9 9 9 8 7 9 10 11 11 9 8 9 8 8 7 7 6 6 7 7
3 5 4 5 5 5 7 6 5 4 6 6 6 6 6 5 5 6 6 6 6 6 5 4 3 5 4 4 4 6 9 9 9 11 15 17 14 13 12 10 10 10 9 10 11 9 9 10 9 9 10 12 14 10 9 9 8 8 7 7 6 6 6
3 3 5 5 6 4 3 4 7 7 6 6 6 6 5 5 5 5 6 6 7 6 5 4 4 3 4 4 4 3 5 4 2 6 11 13 13 12 12 11 10 10 9 7 8 10 10 10 9 9 10 11 9 9 8 8 8 8 8 7 7 7 6
5 4 2 2 3 6 7 7 6 6 7 5 5 4 4 4 5 6 6 6 6 5 5 4 5 4 4 3 3 4 2 3 4 3 4 6 6 7 7 7 8 10 9 9 10 9 11 11 9 8 8 8 7 7 6 6 6 7 7 7 7 7 7
5 5 4 4 6 5 6 7 7 7 6 5 4 5 5 4 5 5 5 5 5 5 6 6 6 5 4 4 3 2 2 0 3 4 4 4 5 6 6 5 4 5 6 7 7 7 8 9 8 7 8 8 8 8 8 7 7 6 6 6 7 6 7
5 5 6 7 7 7 7 7 6 6 6 5 6 6 5 5 5 5 5 5 5 5 5 5 5 5 4 4 4 3 2 3 2 3 3 4 4 5 5 3 3 3 3 3 4 5 6 4 6 7 8 9 9 8 7 6 6 8 12 10 7 7 6
6 6 7 7 6 5 6 6 6 5 6 7 7 7 7 6 5 4 5 5 5 6 5 4 4 5 5 5 4 4 2 3 4 3 3 3 5 4 4 4 4 5 5 4 6 8 8 9 8 8 7 9 9 9 7 6 6 11 12 13 13 8 7
7 7 7 8 7 5 5 7 7 7 8 8 7 7 7 6 5 4 6 5 6 5 4 3 4 5 5 4 4 3 2 1 2 6 5 3 6 8 7 6 5 5 6 6 5 3 4 9 10 8 6 3 2 3 5 6 8 11 11 12 13 12 8
9 8 9 8 7 7 7 8 9 9 7 6 7 8 8 6 5 6 6 6 6 5 6 6 6 6 5 5 5 5 5 5 4 4 6 5 4 2 3 5 5 6 7 7 6 5 5 4 5 6 4 3 6 8 8 8 10 15 15 14 14 15 12
8 9 7 6 6 7 7 6 5 6 7 8 8 8 7 7 7 6 5 6 6 6 7 7 6 6 6 5 5 5 5 5 6 7 6 6 5 5 6 6 7 6 6 5 5 7 7 9 8 7 9 10 10 8 8 10 12 13 12 12 13 14 11
9 8 8 7 7 7 7 7 5 4 5 7 7 7 6 6 5 4 5 6 7 7 7 7 7 6 5 5 5 5 6 6 6 7 6 8 8 7 7 7 7 8 6 6 7 7 8 8 9 9 11 10 10 11 10 11 14 13 13 12 10 7 7
10 9 8 9 9 9 8 8 9 8 7 5 6 6 7 7 6 6 6 7 8 7 7 7 6 6 5 5 5 6 6 6 6 7 7 7 7 7 7 7 7 7 7 7 6 6 6 6 8 9 10 9 9 10 11 10 13 13 13 13 9 11 5
11 11 10 8 9 10 9 7 6 6 6 7 7 7 8 7 7 6 6 6 6 6 6 6 6 6 6 6 6 6 6 7 8 7 7 7 7 8 7 6 6 6 6 7 8 9 10 9 9 9 9 10 10 10 9 8 9 11 11 10 12 10 6
3 4 6 6 4 4 3 3 4 5 7 9 8 7 7 7 7 7 7 6 6 5 5 6 6 6 6 6 7 7 6 7 7 7 8 7 8 8 7 7 6 6 6 7 8 8 9 8 8 7 8 10 10 10 8 7 8 11 11 11 11 9 7
5 4 4 6 8 9 7 6 6 6 6 7 9 7 7 7 8 7 7 6 6 6 6 6 6 6 6 6 7 7 7 7 7 7 7 7 7 7 7 7 6 6 6 7 6 7 5 6 7 7 7 7 8 10 10 6 7 11 11 11 14 12 7
7 6 5 5 5 5 4 6 6 6 7 8 8 8 8 7 7 7 6 6 6 5 6 6 6 6 6 6 6 6 6 6 6 6 7 7 6 5 6 5 6 6 6 6 6 6 5 5 6 8 7 6 7 7 7 6 5 7 11 11 12 13 8
4 4 5 5 6 5 6 7 8 9 9 7 8 8 8 7 7 7 6 7 6 7 8 7 6 5 5 5 5 6 6 6 6 7 7 7 6 6 6 5 5 5 5 6 5 6 5 6 7 7 7 6 6 6 6 5 5 6 10 11 14 15 14
4 3 2 2 4 5 6 6 5 5 6 6 8 9 8 8 8 6 7 7 8 9 7 5 5 4 4 4 5 5 6 6 5 5 5 6 6 6 6 5 5 5 6 6 5 6 7 6 6 5 5 5 5 6 5 5 8 4 8 13 15 14 15
6 7 6 5 5 6 6 7 7 7 7 7 8 8 8 9 10 9 7 7 9 7 5 4 4 4 4 4 4 5 5 5 7 5 4 5 6 6 6 5 6 5 5 6 6 6 6 6 5 5 5 4 4 3 3 4 4 7 5 5 10 12 14
1 2 3 5 5 7 7 6 5 5 5 6 7 8 8 9 10 9 9 9 5 5 4 5 5 5 4 5 4 4 4 5 5 4 4 5 5 5 5 5 5 4 5 5 5 6 6 5 6 5 5 5 4 2 2 1 3 6 5 6 11 11 16
1 2 3 5 6 6 7 9 8 7 6 5 7 7 8 7 9 9 9 7 6 6 6 6 5 5 5 5 4 3 3 3 4 4 4 5 5 5 5 5 5 5 5 6 5 5 5 5 4 4 4 4 3 2 2 0 1 2 4 7 8 10 9
1 1 2 2 4 6 7 5 5 7 8 6 7 7 7 7 7 9 8 6 7 7 7 7 6 6 6 5 4 3 3 4 3 2 3 4 4 4 4 5 5 4 3 4 4 4 5 4 5 5 4 4 3 3 3 1 2 3 3 4 5 3 3
8 2 3 5 4 2 3 5 7 8 8 9 8 7 7 7 6 5 4 7 7 7 7 7 7 6 5 5 4 4 4 5 4 3 3 5 4 3 4 4 4 4 4 4 4 4 3 3 4 3 3 3 3 2 2 3 2 3 4 5 5 5 6
7 7 5 5 3 4 3 5 7 9 9 9 8 7 7 7 7 6 5 5 7 7 7 7 7 7 7 6 4 4 4 4 6 5 3 3 3 3 2 2 3 4 5 5 5 4 4 4 4 5 5 4 4 4 4 5 4 3 5 5 5 6 5
6 6 5 3 5 6 8 7 8 8 9 8 7 7 7 7 6 6 6 6 6 8 8 7 6 5 5 5 4 4 4 4 4 4 3 3 2 2 2 0 3 4 3 3 3 5 5 5 5 4 3 3 5 6 4 5 5 6 4 6 7 9 6
8 6 4 5 4 7 8 7 7 6 7 6 7 8 7 6 6 6 6 6 6 7 8 7 6 6 5 6 5 5 5 5 4 4 4 4 3 3 3 7 7 4 1 3 2 2 2 2 3 4 4 4 2 1 4 5 5 8 10 9 7 7 7
10 12 10 4 4 6 9 9 8 7 7 7 7 8 7 7 6 6 6 7 7 7 7 7 7 5 6 6 6 6 6 5 4 4 4 4 4 4 3 3 4 8 9 6 5 4 2 1 1 3 5 6 4 3 7 6 12 12 10 9 9 9 8
9 8 9 7 5 6 8 8 8 8 7 4 7 8 7 7 6 7 7 7 7 7 7 8 8 7 6 6 6 6 6 4 5 5 4 3 3 3 3 3 3 1 5 6 5 5 5 5 4 3 4 6 8 8 4 5 7 11 11 10 10 8 8
Wind_Direction
153 159 177 172 175 184 189 193 188 186 189 192 201 205 204 200 198 181 195 200 214 218 198 191 189 179 206 213 205 202 203 201 195 200 200 201 196 190 190 188 187 192 191 191 192 193 193 184 181 178 176 184 188 185 184 180 176 170 174 183 192 200 211
188 182 169 173 175 188 199 193 187 186 189 191 190 197 194 192 186 188 199 201 212 214 204 194 193 195 205 214 203 199 203 203 205 205 207 200 200 200 196 191 189 190 193 194 189 190 188 189 183 181 181 181 190 188 182 176 177 176 175 177 191 214 205
206 198 174 176 184 187 193 186 189 187 185 183 167 171 187 191 190 195 195 202 213 216 206 195 198 199 208 217 210 211 209 204 200 204 204 202 202 198 196 194 193 190 192 190 188 184 186 187 188 185 183 185 188 187 184 177 174 171 178 177 191 208 208
209 203 200 189 189 187 187 190 184 178 184 183 174 171 179 194 194 197 198 201 209 213 209 207 200 202 207 212 216 214 210 213 209 209 210 213 209 198 192 195 193 189 185 190 186 182 183 186 189 191 187 187 191 189 185 184 172 168 175 172 190 203 208
238 230 184 182 188 185 192 192 187 174 176 174 169 170 182 187 187 193 201 209 208 210 209 207 203 202 208 214 218 216 214 215 211 213 214 208 211 202 198 195 192 189 190 186 185 185 185 185 188 192 193 189 187 189 192 185 177 168 170 172 188 191 206
217 214 212 203 196 195 191 176 170 173 172 170 167 165 176 180 184 195 196 202 213 221 218 215 209 208 213 214 214 215 218 220 218 212 206 205 205 198 198 197 193 192 185 188 184 187 184 184 188 190 191 186 186 184 188 188 186 174 173 171 188 194 199
218 215 212 212 204 172 131 148 157 147 136 135 147 173 171 174 182 192 187 201 211 213 209 213 214 212 216 211 212 214 214 219 217 215 216 203 200 206 207 197 196 193 191 182 188 185 187 190 192 191 193 189 190 188 190 196 193 188 176 181 188 191 196
209 217 221 209 152 115 145 143 129 116 126 146 165 179 189 191 186 197 198 189 194 211 219 222 222 224 232 229 221 213 213 215 211 204 205 206 198 196 203 210 197 195 186 186 188 186 189 193 190 190 190 192 194 194 189 193 197 186 177 181 189 194 191
225 229 243 128 131 138 135 132 140 154 165 178 188 193 199 205 209 218 211 201 212 223 232 224 224 226 232 240 238 225 214 211 207 204 202 199 196 198 197 206 199 191 190 188 184 188 190 191 191 193 190 197 199 199 195 191 194 191 186 191 189 195 200
227 176 113 127 119 116 126 141 151 157 171 186 196 202 207 211 216 224 231 229 221 232 239 238 235 232 235 237 240 235 219 211 205 207 204 197 191 194 197 200 195 190 190 185 173 178 163 104 69 32 314 212 202 197 201 191 192 192 193 192 190 195 201
171 132 142 145 141 137 139 150 169 182 184 190 199 204 206 206 209 218 229 234 238 246 246 242 231 234 243 240 252 240 227 218 208 207 206 201 191 186 188 194 188 188 188 175 173 167 144 144 156 162 181 211 203 195 201 198 192 192 193 196 194 198 199
145 141 162 163 150 153 170 184 188 190 197 201 202 199 198 196 197 211 225 232 238 249 258 248 230 229 236 242 264 253 234 223 217 207 201 193 181 176 173 185 187 185 185 177 173 156 155 167 171 172 192 201 203 196 198 200 197 196 196 196 196 199 203
118 145 169 178 173 167 159 186 207 207 208 206 202 202 199 189 189 204 216 235 241 244 248 253 239 232 235 240 279 245 192 153 142 179 169 162 165 169 170 177 186 180 177 175 163 157 163 179 170 187 200 209 205 201 197 197 200 202 201 200 198 199 201
125 125 150 145 163 178 196 206 209 216 215 209 209 209 208 190 186 195 204 224 234 236 238 241 242 239 229 224 232 273 213 162 129 76 77 114 139 158 159 161 179 185 179 172 170 167 177 181 177 184 193 205 210 207 198 197 199 199 201 199 197 195 202
153 176 186 197 208 203 204 206 210 213 211 208 199 211 215 202 194 198 212 227 230 226 230 227 227 233 237 229 238 247 279 31 118 148 124 98 108 154 149 165 190 207 188 175 170 166 190 184 186 185 194 204 210 209 206 204 205 196 196 196 199 198 201
175 190 203 217 218 207 212 217 213 211 199 195 199 207 210 208 204 198 202 215 217 221 223 202 214 219 226 244 247 237 205 175 162 158 161 151 137 133 136 164 144 133 112 128 168 175 195 177 205 202 203 206 211 209 210 210 208 206 203 200 198 197 204
186 204 217 227 234 217 206 213 218 207 198 199 198 202 204 208 202 193 200 207 208 219 211 188 208 212 210 224 258 256 203 146 155 138 139 131 91 78 96 105 109 123 139 171 170 172 162 189 218 219 222 213 207 207 206 210 211 207 206 207 207 201 204
191 209 220 226 229 226 195 204 207 206 204 198 197 199 203 206 197 189 205 199 209 203 180 183 209 213 208 194 180 210 195 195 57 95 95 121 156 167 167 166 161 170 187 197 208 182 163 176 199 208 229 285 316 289 267 245 232 225 216 208 211 212 207
195 205 217 217 222 225 218 208 209 208 201 189 190 196 206 193 181 200 199 196 202 171 184 200 202 203 209 188 186 205 187 182 152 162 164 162 152 144 139 173 183 186 188 197 188 165 184 200 202 193 178 176 214 211 221 235 229 226 223 212 211 215 217
201 203 214 221 222 225 227 219 212 208 197 191 191 196 193 185 189 191 186 184 173 176 192 198 207 203 203 182 185 192 200 183 164 185 192 189 185 186 177 178 191 196 198 190 191 198 195 188 191 195 194 197 211 219 227 231 239 222 213 210 211 215 212
202 204 208 214 225 231 226 218 213 183 168 178 182 179 174 184 182 153 165 168 179 191 189 197 197 206 199 187 183 180 185 181 182 191 185 181 191 200 206 203 195 197 196 198 201 205 205 205 193 199 204 201 202 214 221 227 224 219 213 208 204 182 146
205 200 204 209 208 222 214 207 203 193 179 169 164 172 178 179 168 165 176 174 180 187 192 188 190 197 196 194 192 187 188 182 182 197 196 181 189 203 216 217 209 204 199 200 209 211 204 191 200 204 205 202 204 208 219 225 215 210 210 209 172 111 104
193 202 209 209 197 216 213 202 194 174 144 160 167 171 181 170 165 164 161 174 188 183 189 191 201 201 200 201 200 197 186 182 186 193 195 194 193 201 208 211 211 209 198 204 203 206 207 208 205 205 201 202 204 213 220 221 210 207 207 207 155 148 182
246 229 219 207 205 234 219 169 145 147 152 156 169 179 171 165 162 156 164 178 176 177 188 201 214 210 201 199 200 200 187 186 183 189 191 190 199 202 205 208 212 212 209 211 209 210 212 209 211 202 202 203 207 208 208 213 203 194 198 191 161 185 187
212 209 207 203 196 204 203 177 162 151 141 153 157 178 174 163 158 158 171 179 177 183 192 208 213 208 206 204 199 195 191 188 185 190 190 196 201 202 202 203 204 201 200 211 213 220 214 216 219 217 213 212 213 210 212 209 204 192 203 190 180 192 178
208 209 209 205 224 224 181 142 132 143 158 167 173 165 167 162 159 170 176 185 178 187 202 209 213 212 212 208 197 190 187 181 184 185 193 201 201 195 199 186 190 194 200 207 209 214 204 212 216 220 222 215 218 219 216 208 204 198 200 201 195 199 187
207 198 206 205 208 165 156 173 172 173 175 173 159 160 159 160 164 177 176 174 182 205 211 216 215 211 209 198 189 189 190 185 184 188 202 204 196 187 191 186 178 175 194 207 210 212 207 208 216 221 225 215 215 218 215 214 206 208 199 204 205 204 194
141 139 142 172 178 175 172 172 171 139 136 156 160 161 159 160 170 173 176 174 197 211 214 202 200 197 186 183 190 191 192 192 193 193 191 195 190 184 187 187 182 192 201 205 202 207 213 211 215 216 223 213 210 211 202 213 221 177 186 203 209 207 198
165 171 168 155 180 201 182 174 180 175 162 159 164 163 165 162 172 179 184 190 208 206 190 172 160 171 180 196 196 192 183 177 195 189 183 183 185 178 184 175 181 194 188 191 196 205 212 213 217 218 228 230 221 202 180 167 172 183 202 190 196 199 197
294 179 178 197 204 193 183 189 170 161 159 160 163 164 167 169 173 183 184 209 191 164 167 163 157 157 169 197 208 203 200 197 198 171 173 180 173 175 175 179 184 189 197 188 189 195 195 205 208 205 212 215 213 159 110 185 206 196 169 150 184 191 199
231 258 251 219 215 200 193 189 175 157 156 168 167 167 168 176 171 179 196 200 159 166 162 160 156 160 176 195 201 200 197 191 193 176 172 183 178 173 176 183 187 191 194 194 193 192 191 194 197 201 202 190 174 133 114 75 199 121 146 164 187 194 189
337 208 216 252 252 218 205 177 151 157 163 178 184 173 172 175 179 182 199 162 170 164 161 156 158 165 178 189 197 198 174 168 165 156 165 194 198 204 190 192 189 185 166 174 180 191 193 186 191 198 184 167 170 163 113 319 256 151 183 160 145 144 135
312 247 200 217 234 269 248 186 168 173 175 182 193 188 182 174 191 200 170 171 165 161 158 163 166 165 169 176 186 181 174 170 173 179 190 206 203 197 181 174 176 179 178 169 176 186 194 177 183 176 168 167 171 161 154 172 182 151 127 131 121 113 120
305 298 257 219 209 185 222 239 210 186 180 187 185 188 186 180 185 186 187 178 160 157 159 168 172 170 176 175 173 178 179 175 183 171 172 186 176 160 141 151 171 181 190 191 184 186 199 196 202 201 196 186 170 158 146 147 171 162 156 154 138 135 139
297 273 273 253 213 192 207 217 229 212 187 187 173 179 187 189 182 174 180 184 166 155 162 172 177 161 166 172 168 176 180 180 172 148 156 139 94 57 46 195 197 199 217 245 208 195 193 197 206 204 194 166 172 166 154 153 170 189 179 166 156 153 153
311 308 279 241 238 210 211 214 221 229 214 187 168 174 184 190 184 177 175 175 173 167 163 164 157 152 170 177 178 177 171 173 165 146 158 149 140 130 94 53 56 21 294 229 230 334 325 209 188 204 177 147 90 89 159 187 184 142 141 141 128 114 99
326 328 329 307 221 226 216 215 209 217 219 193 167 173 179 182 184 177 178 176 175 174 168 156 158 167 176 180 185 183 175 172 168 173 162 162 161 163 148 140 71 48 38 31 40 12 13 102 167 144 149 150 147 74 33 107 127 137 134 123 116 112 117
329 319 316 312 264 235 226 223 215 216 223 182 172 169 171 174 180 179 175 177 175 174 164 165 161 169 181 190 190 188 181 174 174 166 170 163 169 165 165 164 150 90 40 59 60 51 37 36 49 78 115 148 143 134 71 85 122 131 130 131 135 141 142